TimeCDT,TemperatureF,Dew PointF,Humidity,Sea Level PressureIn,VisibilityMPH,Wind Direction,Wind SpeedMPH,Gust SpeedMPH,PrecipitationIn,Events,Conditions,WindDirDegrees,DateUTC
12:54 AM,52.0,45.0,77,29.58,10.0,ESE,4.6,-,N/A,,Clear,110,2013-04-08 05:54:00
1:54 AM,52.0,46.0,80,29.58,10.0,Calm,Calm,-,N/A,,Clear,0,2013-04-08 06:54:00
2:54 AM,48.9,43.0,80,29.58,10.0,Calm,Calm,-,N/A,,Clear,0,2013-04-08 07:54:00
3:54 AM,52.0,46.9,83,29.57,10.0,NNE,8.1,-,N/A,,Mostly Cloudy,30,2013-04-08 08:54:00
4:29 AM,51.8,46.4,82,29.63,10.0,East,5.8,-,N/A,,Scattered Clouds,80,2013-04-08 09:29:00
4:54 AM,51.1,46.9,86,29.55,9.0,ESE,6.9,-,N/A,,Clear,110,2013-04-08 09:54:00
5:54 AM,50.0,48.0,93,29.54,5.0,ESE,8.1,-,N/A,,Clear,120,2013-04-08 10:54:00
6:03 AM,51.8,48.2,88,29.61,3.0,ESE,6.9,-,N/A,,Scattered Clouds,110,2013-04-08 11:03:00
6:09 AM,51.8,51.8,100,29.61,2.5,ESE,5.8,-,0.00,Rain,Light Rain,110,2013-04-08 11:09:00
6:17 AM,51.8,51.8,100,29.61,3.0,East,4.6,-,0.00,Rain,Light Rain,100,2013-04-08 11:17:00
6:24 AM,53.6,51.8,94,29.61,1.8,East,5.8,-,0.00,,Overcast,100,2013-04-08 11:24:00
6:34 AM,53.6,51.8,94,29.61,0.5,ESE,6.9,-,0.00,Fog,Fog,120,2013-04-08 11:34:00
6:54 AM,54.0,53.1,97,29.55,0.2,ESE,3.5,-,0.00,Fog,Fog,110,2013-04-08 11:54:00
7:54 AM,54.0,54.0,100,29.58,0.2,SE,6.9,-,N/A,Fog,Fog,140,2013-04-08 12:54:00
8:54 AM,55.0,55.0,100,29.59,0.2,SSE,11.5,-,N/A,Fog,Fog,150,2013-04-08 13:54:00
9:11 AM,55.4,55.4,100,29.64,0.2,SE,12.7,-,N/A,Fog,Fog,140,2013-04-08 14:11:00
9:29 AM,55.4,55.4,100,29.63,0.8,SE,11.5,-,N/A,,Overcast,130,2013-04-08 14:29:00
9:40 AM,57.2,55.4,94,29.63,1.2,SE,11.5,-,N/A,,Overcast,130,2013-04-08 14:40:00
9:54 AM,57.0,55.9,96,29.59,2.0,SSE,12.7,-,N/A,,Overcast,150,2013-04-08 14:54:00
10:03 AM,57.2,55.4,94,29.64,4.0,SE,11.5,-,N/A,,Overcast,140,2013-04-08 15:03:00
10:32 AM,57.2,55.4,94,29.64,10.0,ESE,10.4,-,N/A,,Overcast,120,2013-04-08 15:32:00
10:54 AM,57.9,55.0,90,29.60,10.0,SE,11.5,-,N/A,,Overcast,140,2013-04-08 15:54:00
11:29 AM,64.4,53.6,68,29.64,10.0,ESE,16.1,-,N/A,,Mostly Cloudy,120,2013-04-08 16:29:00
11:54 AM,66.0,54.0,65,29.59,10.0,SE,12.7,-,N/A,,Mostly Cloudy,130,2013-04-08 16:54:00
12:54 PM,66.9,53.1,61,29.57,10.0,SE,15.0,-,N/A,,Mostly Cloudy,130,2013-04-08 17:54:00
1:54 PM,64.9,55.0,70,29.54,10.0,SE,17.3,-,N/A,,Overcast,130,2013-04-08 18:54:00
2:54 PM,69.1,54.0,58,29.50,10.0,ESE,16.1,-,N/A,,Mostly Cloudy,110,2013-04-08 19:54:00
3:18 PM,69.8,53.6,56,29.54,10.0,ESE,13.8,21.9,N/A,,Partly Cloudy,110,2013-04-08 20:18:00
3:54 PM,73.0,53.1,49,29.45,10.0,SE,17.3,24.2,N/A,,Clear,140,2013-04-08 20:54:00
4:54 PM,77.0,50.0,39,29.42,10.0,SSE,12.7,24.2,N/A,,Clear,150,2013-04-08 21:54:00
5:54 PM,78.1,46.9,33,29.40,10.0,SE,18.4,27.6,N/A,,Clear,140,2013-04-08 22:54:00
6:54 PM,77.0,46.9,34,29.37,10.0,SE,23.0,29.9,N/A,,Clear,130,2013-04-08 23:54:00
7:54 PM,71.1,48.0,44,29.36,10.0,ESE,15.0,-,N/A,,Clear,120,2013-04-09 00:54:00
8:54 PM,66.9,46.0,47,29.37,10.0,ESE,16.1,-,N/A,,Clear,110,2013-04-09 01:54:00
9:54 PM,69.1,60.1,73,29.37,10.0,SE,28.8,35.7,N/A,,Clear,140,2013-04-09 02:54:00
10:54 PM,66.9,57.9,73,29.38,10.0,SSE,27.6,36.8,N/A,,Clear,150,2013-04-09 03:54:00
11:54 PM,64.9,57.9,78,29.36,10.0,SSE,25.3,34.5,N/A,,Clear,160,2013-04-09 04:54:00